Location: Gettysburg
(39.8310°N, 77.2310°W)
Time: 23:19:00
(UTC-04:00)

ATLAS 2AS CENTAUR R/B - Visible Passes

Search period start: 30 July 2014 00:00
Search period end: 09 August 2014 00:00
Orbit: 918 x 1294 km, 63.7° (Epoch: 29 July)

Date Brightness Start Highest point End Pass type
(mag) Time Alt. Az. Time Alt. Az. Time Alt. Az.
30 Jul 5.6 01:07:49 10° NNW 01:12:11 15° NNE 01:16:34 10° NE visible
30 Jul 4.3 02:58:07 10° NNW 03:05:40 41° NE 03:13:02 10° ESE visible
30 Jul 3.2 04:49:10 10° NW 04:56:56 53° WSW 05:04:26 10° S visible
30 Jul 5.7 22:27:40 10° NW 22:31:22 14° NNW 22:35:11 10° NNE visible
31 Jul 5.7 00:23:07 10° NNW 00:26:24 13° NNE 00:29:42 10° NE visible
31 Jul 4.8 02:13:33 10° NNW 02:20:27 30° NE 02:27:15 10° E visible
31 Jul 3.0 04:04:13 10° NW 04:12:20 80° WSW 04:20:08 10° SSE visible
31 Jul 5.6 21:40:59 10° WNW 21:45:41 17° NNW 21:50:33 10° NNE visible
31 Jul 5.7 23:38:03 10° NNW 23:40:31 12° N 23:43:01 10° NNE visible
01 Aug 5.1 01:29:01 10° NNW 01:35:03 22° NNE 01:41:03 10° E visible
01 Aug 3.3 03:19:27 10° NNW 03:27:33 72° NE 03:35:24 10° SE visible
01 Aug 3.9 05:11:35 10° NW 05:17:54 26° WSW 05:24:02 10° SSW visible
01 Aug 5.4 20:54:34 10° W 21:00:08 22° NNW 21:06:00 10° NNE visible
01 Aug 5.7 22:52:12 10° NNW 22:54:37 11° N 22:57:04 10° NNE visible
02 Aug 5.4 00:44:28 10° NNW 00:49:30 17° NNE 00:54:31 10° ENE visible
02 Aug 3.8 02:34:47 10° NNW 02:42:37 50° NE 02:50:14 10° ESE visible
02 Aug 3.4 04:26:09 10° NW 04:33:32 41° WSW 04:40:40 10° S visible
02 Aug 5.6 22:05:37 10° NW 22:08:45 13° NNW 22:11:57 10° NNE visible
02 Aug 5.5 23:59:52 10° NNW 00:03:47 14° NNE 00:07:44 10° NE visible
03 Aug 4.4 01:50:11 10° NNW 01:57:30 36° NE 02:04:40 10° ESE visible
03 Aug 3.0 03:41:04 10° NW 03:49:01 63° WSW 03:56:40 10° SSE visible
03 Aug 4.6 05:37:04 10° W 05:38:30 11° W 05:39:54 10° WSW visible
03 Aug 5.5 21:18:52 10° NW 21:22:59 15° NNW 21:27:13 10° NNE visible
03 Aug 5.6 23:15:03 10° NNW 23:17:58 12° N 23:20:53 10° NNE visible
04 Aug 4.8 01:05:38 10° NNW 01:12:13 27° NE 01:18:43 10° E visible
04 Aug 3.0 02:56:12 10° NNW 03:04:21 89° ENE 03:09:37 24° SSE visible
04 Aug 4.2 04:49:05 10° WNW 04:54:21 19° WSW 04:56:50 17° SW visible
04 Aug 5.6 22:29:43 10° NNW 22:32:04 11° N 22:34:26 10° NNE visible
05 Aug 5.1 00:21:06 10° NNW 00:26:45 20° NNE 00:32:23 10° ENE visible
05 Aug 3.4 02:11:29 10° NNW 02:19:30 62° NE 02:23:55 28° ESE visible
05 Aug 3.6 04:03:15 10° NW 04:10:05 31° WSW 04:11:12 30° SW visible
05 Aug 5.6 21:43:32 10° NNW 21:46:10 12° N 21:48:51 10° NNE visible
05 Aug 5.3 23:36:32 10° NNW 23:41:08 16° NNE 23:45:44 10° ENE visible
06 Aug 3.9 01:26:51 10° NNW 01:34:30 44° NE 01:38:54 24° ESE visible
06 Aug 3.2 03:17:59 10° NW 03:25:39 49° WSW 03:26:13 48° SW visible
06 Aug 5.5 20:56:49 10° NW 21:00:20 13° NNW 21:03:56 10° NNE visible
06 Aug 5.4 22:51:52 10° NNW 22:55:22 13° NNE 22:58:53 10° NE visible
07 Aug 4.4 00:42:16 10° NNW 00:49:19 32° NE 00:54:16 17° E visible
07 Aug 2.9 02:33:00 10° NW 02:41:04 74° WSW 02:41:37 71° SSW visible
07 Aug 4.7 04:27:08 10° WNW 04:28:58 13° W 04:28:58 13° W visible
07 Aug 5.5 22:06:55 10° NNW 22:09:30 12° N 22:12:08 10° NNE visible
07 Aug 4.8 23:57:44 10° NNW 00:03:57 24° NNE 00:09:53 11° E visible
08 Aug 3.0 01:48:12 10° NNW 01:56:20 77° NE 01:57:15 69° ESE visible
08 Aug 4.3 03:40:33 10° WNW 03:44:37 22° W 03:44:37 22° W visible
08 Aug 5.5 21:21:14 10° NNW 21:23:36 11° N 21:26:00 10° NNE visible
08 Aug 5.1 23:13:11 10° NNW 23:18:25 18° NNE 23:23:39 10° ENE visible
